Location: Wells
(51.2093°N, 2.6446°W)
Time: 08:09:21
(UTC+01:00)

CUBEBUG 2 - Pass Details

Date: 20 March 2026
Orbit: 548 x 627 km, 97.9° (Epoch: 14 April)

Event Time Altitude Azimuth Distance (km) Brightness Sun altitude
Rises 02:32:53 0° 15° (NNE) 2,910 ? -31.6°
Reaches altitude 10° 02:35:05 10° 18° (NNE) 2,006 ? -31.4°
Enters shadow 02:37:35 33° 26° (NNE) 1,052 ? -31.1°
